Location: Bukit Setapoh
(2.2500°N, 113.8000°E)
Time: 23:31:19
(UTC+00:00)

HJ-1C - Pass Details

Date: 25 July 2021
Orbit: 423 x 438 km, 97.1° (Epoch: 22 September)

Event Time Altitude Azimuth Distance (km) Brightness Sun altitude
Exits shadow 11:47:42 26° 170° (S) 869 4.5 -17.1°
Maximum altitude 11:49:23 88° 255° (WSW) 428 3.2 -17.5°
Drops below altitude 10° 11:52:36 10° 349° (NNW) 1,508 6.5 -18.3°
Sets 11:54:36 0° 349° (N) 2,372 7.5 -18.7°
